Time,TemperatureF,DewpointF,PressureIn,WindDirection,WindDirectionDegrees,WindSpeedMPH,WindSpeedGustMPH,Humidity,HourlyPrecipIn,Conditions,Clouds,dailyrainin,SoftwareType,DateUTC
2013-02-27 00:00:00,39.7,36.4,0.00,West,270,0.0,0.0,88,0.00,,,0.00,WUHU216HW,2013-02-27 05:00:00,
2013-02-27 00:05:00,39.7,36.4,0.00,West,270,0.0,0.0,88,0.00,,,0.00,WUHU216HW,2013-02-27 05:05:00,
2013-02-27 00:10:00,39.9,36.6,0.00,West,270,0.0,0.0,88,0.00,,,0.00,WUHU216HW,2013-02-27 05:10:00,
2013-02-27 00:15:00,39.9,36.6,0.00,West,270,0.0,0.0,88,0.00,,,0.00,WUHU216HW,2013-02-27 05:15:00,
2013-02-27 00:20:00,39.9,36.6,0.00,South,180,0.0,0.0,88,0.00,,,0.00,WUHU216HW,2013-02-27 05:20:00,
2013-02-27 00:25:00,39.9,36.6,0.00,South,180,0.0,0.0,88,0.00,,,0.00,WUHU216HW,2013-02-27 05:25:00,
2013-02-27 00:30:00,39.9,36.6,0.00,South,180,0.0,0.0,88,0.00,,,0.00,WUHU216HW,2013-02-27 05:30:00,
2013-02-27 00:35:00,39.9,36.6,0.00,South,180,0.0,0.0,88,0.00,,,0.00,WUHU216HW,2013-02-27 05:35:00,
2013-02-27 00:40:00,39.9,36.6,0.00,South,180,0.0,0.0,88,0.00,,,0.00,WUHU216HW,2013-02-27 05:40:00,
2013-02-27 00:45:00,39.9,36.6,0.00,South,180,0.0,0.0,88,0.00,,,0.00,WUHU216HW,2013-02-27 05:45:00,
2013-02-27 00:50:00,39.9,36.6,0.00,South,180,0.0,0.0,88,0.00,,,0.00,WUHU216HW,2013-02-27 05:50:00,
2013-02-27 00:55:00,39.9,36.6,0.00,South,180,0.0,0.0,88,0.00,,,0.00,WUHU216HW,2013-02-27 05:55:00,
2013-02-27 01:00:00,39.9,36.6,0.00,South,180,0.0,0.0,88,0.00,,,0.00,WUHU216HW,2013-02-27 06:00:00,
2013-02-27 01:05:00,39.7,36.6,0.00,South,180,0.0,0.0,88,0.00,,,0.00,WUHU216HW,2013-02-27 06:05:00,
2013-02-27 01:10:00,39.9,36.6,0.00,South,180,0.0,0.0,88,0.00,,,0.00,WUHU216HW,2013-02-27 06:10:00,
2013-02-27 01:15:00,39.7,36.4,0.00,South,180,0.0,0.0,88,0.00,,,0.00,WUHU216HW,2013-02-27 06:15:00,
2013-02-27 01:20:00,39.7,36.4,0.00,South,180,0.0,0.0,88,0.00,,,0.00,WUHU216HW,2013-02-27 06:20:00,
2013-02-27 01:25:00,39.7,36.4,0.00,South,180,0.0,0.0,88,0.00,,,0.00,WUHU216HW,2013-02-27 06:25:00,
2013-02-27 01:30:00,39.7,36.4,0.00,South,180,0.0,0.0,88,0.00,,,0.00,WUHU216HW,2013-02-27 06:30:00,
2013-02-27 01:35:00,39.7,36.4,0.00,South,180,0.0,0.0,88,0.00,,,0.00,WUHU216HW,2013-02-27 06:35:00,
2013-02-27 01:40:00,39.7,36.1,0.00,South,180,0.0,0.0,87,0.00,,,0.00,WUHU216HW,2013-02-27 06:40:00,
2013-02-27 01:45:00,39.7,36.1,0.00,South,180,0.0,0.0,87,0.00,,,0.00,WUHU216HW,2013-02-27 06:45:00,
2013-02-27 01:50:00,39.7,36.1,0.00,South,180,0.0,0.0,87,0.00,,,0.00,WUHU216HW,2013-02-27 06:50:00,
2013-02-27 01:55:00,39.5,35.9,0.00,South,180,0.0,0.0,87,0.00,,,0.00,WUHU216HW,2013-02-27 06:55:00,
2013-02-27 02:00:00,39.5,35.9,0.00,South,180,0.0,0.0,87,0.00,,,0.00,WUHU216HW,2013-02-27 07:00:00,
2013-02-27 02:05:00,39.3,35.9,0.00,South,180,0.0,0.0,87,0.00,,,0.00,WUHU216HW,2013-02-27 07:05:00,
2013-02-27 02:10:00,39.5,35.9,0.00,South,180,0.0,0.0,87,0.00,,,0.00,WUHU216HW,2013-02-27 07:10:00,
2013-02-27 02:15:00,39.3,35.7,0.00,South,180,0.0,0.0,87,0.00,,,0.00,WUHU216HW,2013-02-27 07:15:00,
2013-02-27 02:20:00,39.3,35.7,0.00,South,180,0.0,0.0,87,0.00,,,0.00,WUHU216HW,2013-02-27 07:20:00,
2013-02-27 02:25:00,39.3,35.7,0.00,South,180,0.0,0.0,87,0.00,,,0.00,WUHU216HW,2013-02-27 07:25:00,
2013-02-27 02:30:00,39.3,35.7,0.00,South,180,0.0,0.0,87,0.00,,,0.00,WUHU216HW,2013-02-27 07:30:00,
2013-02-27 02:35:00,39.3,35.7,0.00,South,180,0.0,0.0,87,0.00,,,0.00,WUHU216HW,2013-02-27 07:35:00,
2013-02-27 02:40:00,39.3,35.7,0.00,SE,135,0.0,0.0,87,0.00,,,0.00,WUHU216HW,2013-02-27 07:40:00,
2013-02-27 02:45:00,39.3,35.7,0.00,SE,135,0.0,0.0,87,0.00,,,0.00,WUHU216HW,2013-02-27 07:45:00,
2013-02-27 02:50:00,39.3,35.5,0.00,SE,135,0.0,0.0,86,0.00,,,0.00,WUHU216HW,2013-02-27 07:50:00,
2013-02-27 02:55:00,39.3,35.5,0.00,SE,135,0.0,0.0,86,0.00,,,0.00,WUHU216HW,2013-02-27 07:55:00,
2013-02-27 03:00:00,39.3,35.5,0.00,SE,135,0.0,0.0,86,0.00,,,0.00,WUHU216HW,2013-02-27 08:00:00,
2013-02-27 03:05:00,39.2,35.3,0.00,SE,135,0.0,0.0,86,0.00,,,0.00,WUHU216HW,2013-02-27 08:05:00,
2013-02-27 03:10:00,39.0,35.1,0.00,WNW,293,0.0,0.0,86,0.00,,,0.00,WUHU216HW,2013-02-27 08:10:00,
2013-02-27 03:15:00,39.0,35.1,0.00,WNW,293,0.0,0.0,86,0.00,,,0.00,WUHU216HW,2013-02-27 08:15:00,
2013-02-27 03:20:00,38.8,34.9,0.00,WNW,293,0.0,0.0,86,0.00,,,0.00,WUHU216HW,2013-02-27 08:20:00,
2013-02-27 03:25:00,38.8,34.9,0.00,ESE,113,0.0,1.7,86,0.00,,,0.00,WUHU216HW,2013-02-27 08:25:00,
2013-02-27 03:30:00,38.8,34.9,0.00,ESE,113,0.0,1.7,86,0.00,,,0.00,WUHU216HW,2013-02-27 08:30:00,
2013-02-27 03:35:00,38.6,34.8,0.00,SE,135,0.0,0.0,86,0.00,,,0.00,WUHU216HW,2013-02-27 08:35:00,
2013-02-27 03:40:00,38.4,34.6,0.00,SE,135,0.0,0.0,86,0.00,,,0.00,WUHU216HW,2013-02-27 08:40:00,
2013-02-27 03:45:00,38.4,34.1,0.00,SE,135,0.0,0.0,85,0.00,,,0.00,WUHU216HW,2013-02-27 08:45:00,
2013-02-27 03:50:00,38.3,34.1,0.00,SE,135,0.0,0.0,85,0.00,,,0.00,WUHU216HW,2013-02-27 08:50:00,
2013-02-27 03:55:00,38.1,33.9,0.00,ESE,113,0.0,0.0,85,0.00,,,0.00,WUHU216HW,2013-02-27 08:55:00,
2013-02-27 04:00:00,38.1,33.9,0.00,SE,135,0.0,0.0,85,0.00,,,0.00,WUHU216HW,2013-02-27 09:00:00,
2013-02-27 04:05:00,37.9,33.8,0.00,SE,135,0.0,0.0,85,0.00,,,0.00,WUHU216HW,2013-02-27 09:05:00,
2013-02-27 04:10:00,37.9,33.8,0.00,SE,135,0.0,0.0,85,0.00,,,0.00,WUHU216HW,2013-02-27 09:10:00,
2013-02-27 04:15:00,37.9,33.8,0.00,SE,135,0.0,0.0,85,0.00,,,0.00,WUHU216HW,2013-02-27 09:15:00,
2013-02-27 04:20:00,37.9,33.8,0.00,SE,135,0.0,0.0,85,0.00,,,0.00,WUHU216HW,2013-02-27 09:20:00,
2013-02-27 04:25:00,37.9,33.8,0.00,SE,135,0.0,0.0,85,0.00,,,0.00,WUHU216HW,2013-02-27 09:25:00,
2013-02-27 04:30:00,37.7,33.8,0.00,SE,135,0.0,0.0,85,0.00,,,0.00,WUHU216HW,2013-02-27 09:30:00,
2013-02-27 04:35:00,37.7,33.6,0.00,SE,135,0.0,0.0,85,0.00,,,0.00,WUHU216HW,2013-02-27 09:35:00,
2013-02-27 04:40:00,37.7,33.6,0.00,SE,135,0.0,0.0,85,0.00,,,0.00,WUHU216HW,2013-02-27 09:40:00,
2013-02-27 04:45:00,37.7,33.6,0.00,SE,135,0.0,0.0,85,0.00,,,0.00,WUHU216HW,2013-02-27 09:45:00,
2013-02-27 04:50:00,37.5,33.1,0.00,SE,135,0.0,0.0,84,0.00,,,0.00,WUHU216HW,2013-02-27 09:50:00,
2013-02-27 04:55:00,37.5,33.1,0.00,SE,135,0.0,0.0,84,0.00,,,0.00,WUHU216HW,2013-02-27 09:55:00,
2013-02-27 05:00:00,37.5,33.1,0.00,SE,135,0.0,0.0,84,0.00,,,0.00,WUHU216HW,2013-02-27 10:00:00,
2013-02-27 05:05:00,37.5,33.1,0.00,SE,135,0.0,0.0,84,0.00,,,0.00,WUHU216HW,2013-02-27 10:05:00,
2013-02-27 05:10:00,37.5,33.1,0.00,SE,135,0.0,2.0,84,0.00,,,0.00,WUHU216HW,2013-02-27 10:10:00,
2013-02-27 05:15:00,37.5,33.1,0.00,SE,135,0.0,2.0,84,0.00,,,0.00,WUHU216HW,2013-02-27 10:15:00,
2013-02-27 05:20:00,37.4,32.9,0.00,SE,135,0.0,0.0,84,0.00,,,0.00,WUHU216HW,2013-02-27 10:20:00,
2013-02-27 05:25:00,37.4,32.9,0.00,SE,135,2.0,4.0,84,0.00,,,0.00,WUHU216HW,2013-02-27 10:25:00,
2013-02-27 05:30:00,37.4,32.9,0.00,ESE,113,0.0,4.0,84,0.00,,,0.00,WUHU216HW,2013-02-27 10:30:00,
2013-02-27 05:35:00,37.4,32.9,0.00,ESE,113,0.0,2.2,84,0.00,,,0.00,WUHU216HW,2013-02-27 10:35:00,
2013-02-27 05:40:00,37.4,32.9,0.00,ESE,113,0.0,0.0,84,0.00,,,0.00,WUHU216HW,2013-02-27 10:40:00,
2013-02-27 05:45:00,37.4,32.6,0.00,ESE,113,0.0,0.0,83,0.00,,,0.00,WUHU216HW,2013-02-27 10:45:00,
2013-02-27 05:50:00,37.2,32.5,0.00,ESE,113,0.0,0.0,83,0.00,,,0.00,WUHU216HW,2013-02-27 10:50:00,
2013-02-27 05:55:00,37.2,32.5,0.00,ESE,113,0.0,0.0,83,0.00,,,0.00,WUHU216HW,2013-02-27 10:55:00,
2013-02-27 06:00:00,37.2,32.5,0.00,SE,135,2.9,2.9,83,0.00,,,0.00,WUHU216HW,2013-02-27 11:00:00,
2013-02-27 06:05:00,37.4,32.6,0.00,ESE,113,0.0,2.9,83,0.00,,,0.00,WUHU216HW,2013-02-27 11:05:00,
2013-02-27 06:10:00,37.4,32.6,0.00,SE,135,2.4,2.4,83,0.00,,,0.00,WUHU216HW,2013-02-27 11:10:00,
2013-02-27 06:15:00,37.4,32.6,0.00,ESE,113,2.0,2.6,83,0.00,,,0.00,WUHU216HW,2013-02-27 11:15:00,
2013-02-27 06:20:00,37.4,32.6,0.00,ESE,113,1.5,2.6,83,0.00,,,0.00,WUHU216HW,2013-02-27 11:20:00,
2013-02-27 06:25:00,37.4,32.6,0.00,ESE,113,0.0,2.6,83,0.00,,,0.00,WUHU216HW,2013-02-27 11:25:00,
2013-02-27 06:30:00,37.4,32.6,0.00,ESE,113,0.0,0.4,83,0.00,,,0.00,WUHU216HW,2013-02-27 11:30:00,
2013-02-27 06:35:00,37.2,32.5,0.00,ESE,113,0.0,0.4,83,0.00,,,0.00,WUHU216HW,2013-02-27 11:35:00,
2013-02-27 06:40:00,37.2,32.5,0.00,North,0,0.0,1.3,83,0.00,,,0.00,WUHU216HW,2013-02-27 11:40:00,
2013-02-27 06:45:00,37.2,32.5,0.00,ESE,113,0.0,1.3,83,0.00,,,0.00,WUHU216HW,2013-02-27 11:45:00,
2013-02-27 06:50:00,37.2,32.5,0.00,ESE,113,0.8,0.8,83,0.00,,,0.00,WUHU216HW,2013-02-27 11:50:00,
2013-02-27 06:55:00,37.2,32.5,0.00,ESE,113,0.0,0.8,83,0.00,,,0.00,WUHU216HW,2013-02-27 11:55:00,
2013-02-27 07:00:00,37.0,32.3,0.00,ESE,113,0.0,0.8,83,0.00,,,0.00,WUHU216HW,2013-02-27 12:00:00,
2013-02-27 07:05:00,37.0,32.3,0.00,ESE,113,0.0,1.5,83,0.00,,,0.00,WUHU216HW,2013-02-27 12:05:00,
2013-02-27 07:10:00,37.0,32.3,0.00,ESE,113,0.0,1.5,83,0.00,,,0.00,WUHU216HW,2013-02-27 12:10:00,
2013-02-27 07:15:00,37.0,32.3,0.00,ESE,113,0.0,3.1,83,0.00,,,0.00,WUHU216HW,2013-02-27 12:15:00,
2013-02-27 07:20:00,37.0,32.1,0.00,ESE,113,0.0,3.1,83,0.00,,,0.00,WUHU216HW,2013-02-27 12:20:00,
2013-02-27 07:25:00,36.8,32.1,0.00,ESE,113,0.0,0.0,83,0.00,,,0.00,WUHU216HW,2013-02-27 12:25:00,
2013-02-27 07:30:00,36.8,32.1,0.00,ESE,113,0.0,1.5,83,0.00,,,0.00,WUHU216HW,2013-02-27 12:30:00,
2013-02-27 07:35:00,36.8,32.1,0.00,ESE,113,0.0,1.5,83,0.00,,,0.00,WUHU216HW,2013-02-27 12:35:00,
2013-02-27 07:40:00,36.8,32.1,0.00,ESE,113,0.0,0.0,83,0.00,,,0.00,WUHU216HW,2013-02-27 12:40:00,
2013-02-27 07:45:00,37.0,32.3,0.00,ESE,113,0.0,2.4,83,0.00,,,0.00,WUHU216HW,2013-02-27 12:45:00,
2013-02-27 07:50:00,37.0,32.3,0.00,ESE,113,0.0,2.4,83,0.00,,,0.00,WUHU216HW,2013-02-27 12:50:00,
2013-02-27 07:55:00,37.0,32.0,0.00,SE,135,2.9,3.8,82,0.00,,,0.00,WUHU216HW,2013-02-27 12:55:00,
2013-02-27 08:00:00,37.0,32.0,0.00,SE,135,1.3,3.8,82,0.00,,,0.00,WUHU216HW,2013-02-27 13:00:00,
2013-02-27 08:05:00,37.0,32.2,0.00,SE,135,0.0,3.8,82,0.00,,,0.00,WUHU216HW,2013-02-27 13:05:00,
2013-02-27 08:10:00,37.2,32.2,0.00,ESE,113,1.7,3.8,82,0.00,,,0.00,WUHU216HW,2013-02-27 13:10:00,
2013-02-27 08:15:00,37.2,32.2,0.00,SE,135,2.2,3.5,82,0.00,,,0.00,WUHU216HW,2013-02-27 13:15:00,
2013-02-27 08:20:00,37.4,32.1,0.00,SE,135,0.0,4.2,81,0.00,,,0.00,WUHU216HW,2013-02-27 13:20:00,
2013-02-27 08:25:00,37.4,32.1,0.00,SE,135,3.3,4.2,81,0.00,,,0.00,WUHU216HW,2013-02-27 13:25:00,
2013-02-27 08:30:00,37.4,32.1,0.00,SE,135,2.4,3.5,81,0.00,,,0.00,WUHU216HW,2013-02-27 13:30:00,
2013-02-27 08:35:00,37.2,31.9,0.00,SE,135,2.4,3.5,81,0.00,,,0.00,WUHU216HW,2013-02-27 13:35:00,
2013-02-27 08:40:00,37.2,31.9,0.00,SE,135,3.5,5.8,81,0.00,,,0.00,WUHU216HW,2013-02-27 13:40:00,
2013-02-27 08:45:00,37.2,31.9,0.00,SE,135,2.6,5.8,81,0.00,,,0.00,WUHU216HW,2013-02-27 13:45:00,
2013-02-27 08:50:00,37.2,31.9,0.00,SE,135,0.6,3.3,81,0.00,,,0.00,WUHU216HW,2013-02-27 13:50:00,
2013-02-27 08:55:00,37.4,32.1,0.00,SE,135,1.3,2.9,81,0.00,,,0.00,WUHU216HW,2013-02-27 13:55:00,
2013-02-27 09:00:00,37.5,32.2,0.00,SE,135,2.9,2.9,81,0.00,,,0.00,WUHU216HW,2013-02-27 14:00:00,
2013-02-27 09:05:00,37.7,32.1,0.00,ESE,113,3.5,5.5,80,0.00,,,0.00,WUHU216HW,2013-02-27 14:05:00,
2013-02-27 09:10:00,37.9,32.3,0.00,SE,135,4.9,6.0,80,0.00,,,0.00,WUHU216HW,2013-02-27 14:10:00,
2013-02-27 09:15:00,38.1,32.5,0.00,SE,135,4.0,6.0,80,0.00,,,0.00,WUHU216HW,2013-02-27 14:15:00,
2013-02-27 09:20:00,38.4,32.9,0.00,ESE,113,4.6,4.9,80,0.00,,,0.00,WUHU216HW,2013-02-27 14:20:00,
2013-02-27 09:25:00,38.4,32.9,0.00,ESE,113,0.0,4.6,80,0.00,,,0.00,WUHU216HW,2013-02-27 14:25:00,
2013-02-27 09:30:00,38.8,32.9,0.00,SE,135,0.0,4.2,79,0.00,,,0.00,WUHU216HW,2013-02-27 14:30:00,
2013-02-27 09:35:00,38.8,32.9,0.00,SE,135,0.0,4.2,79,0.00,,,0.00,WUHU216HW,2013-02-27 14:35:00,
2013-02-27 09:40:00,39.0,33.0,0.00,SE,135,3.3,4.2,79,0.00,,,0.00,WUHU216HW,2013-02-27 14:40:00,
2013-02-27 09:45:00,39.3,33.4,0.00,East,90,0.0,4.2,79,0.00,,,0.00,WUHU216HW,2013-02-27 14:45:00,
2013-02-27 09:50:00,39.3,33.0,0.00,SE,135,2.4,5.5,78,0.00,,,0.00,WUHU216HW,2013-02-27 14:50:00,
2013-02-27 09:55:00,39.5,33.2,0.00,SSE,158,1.5,5.5,78,0.00,,,0.00,WUHU216HW,2013-02-27 14:55:00,
2013-02-27 10:00:00,39.7,33.4,0.00,SE,135,0.0,4.0,78,0.00,,,0.00,WUHU216HW,2013-02-27 15:00:00,
2013-02-27 10:05:00,39.9,33.5,0.00,SE,135,4.6,4.6,78,0.00,,,0.00,WUHU216HW,2013-02-27 15:05:00,
2013-02-27 10:10:00,39.9,33.2,0.00,SE,135,4.2,6.7,77,0.00,,,0.00,WUHU216HW,2013-02-27 15:10:00,
2013-02-27 10:15:00,40.2,33.0,0.00,SE,135,2.9,6.7,76,0.00,,,0.00,WUHU216HW,2013-02-27 15:15:00,
2013-02-27 10:20:00,40.2,33.2,0.00,SE,135,0.0,4.9,76,0.00,,,0.00,WUHU216HW,2013-02-27 15:20:00,
2013-02-27 10:25:00,40.8,33.9,0.00,ESE,113,1.1,4.2,77,0.00,,,0.00,WUHU216HW,2013-02-27 15:25:00,
2013-02-27 10:30:00,41.0,33.9,0.00,SE,135,2.9,4.2,76,0.00,,,0.00,WUHU216HW,2013-02-27 15:30:00,
2013-02-27 10:35:00,41.1,33.8,0.00,SE,135,2.0,6.0,75,0.00,,,0.00,WUHU216HW,2013-02-27 15:35:00,
2013-02-27 10:40:00,41.1,33.8,0.00,SE,135,3.8,6.0,75,0.00,,,0.00,WUHU216HW,2013-02-27 15:40:00,
2013-02-27 10:45:00,41.5,34.1,0.00,SE,135,0.0,5.1,75,0.00,,,0.00,WUHU216HW,2013-02-27 15:45:00,
2013-02-27 10:50:00,41.7,34.3,0.00,SE,135,4.0,7.3,75,0.00,,,0.00,WUHU216HW,2013-02-27 15:50:00,
2013-02-27 10:55:00,42.4,34.7,0.00,SE,135,4.0,7.3,74,0.00,,,0.00,WUHU216HW,2013-02-27 15:55:00,
2013-02-27 11:00:00,42.6,34.9,0.00,SE,135,2.4,6.7,74,0.00,,,0.00,WUHU216HW,2013-02-27 16:00:00,
2013-02-27 11:05:00,43.1,35.0,0.00,SSE,158,0.0,3.8,73,0.00,,,0.00,WUHU216HW,2013-02-27 16:05:00,
2013-02-27 11:10:00,43.3,35.2,0.00,SE,135,3.5,4.2,73,0.00,,,0.00,WUHU216HW,2013-02-27 16:10:00,
2013-02-27 11:15:00,43.5,35.0,0.00,SSE,158,0.0,4.2,72,0.00,,,0.00,WUHU216HW,2013-02-27 16:15:00,
2013-02-27 11:20:00,43.5,35.0,0.00,SE,135,3.5,3.5,72,0.00,,,0.00,WUHU216HW,2013-02-27 16:20:00,
2013-02-27 11:25:00,43.7,35.2,0.00,SSE,158,2.6,6.4,72,0.00,,,0.00,WUHU216HW,2013-02-27 16:25:00,
2013-02-27 11:30:00,44.0,35.2,0.00,SE,135,2.0,6.4,71,0.00,,,0.00,WUHU216HW,2013-02-27 16:30:00,
2013-02-27 11:35:00,44.2,35.4,0.00,SE,135,4.2,5.5,71,0.00,,,0.00,WUHU216HW,2013-02-27 16:35:00,
2013-02-27 11:40:00,44.7,35.9,0.00,SSE,158,4.2,5.5,71,0.00,,,0.00,WUHU216HW,2013-02-27 16:40:00,
2013-02-27 11:45:00,44.9,36.1,0.00,SE,135,3.8,5.5,71,0.00,,,0.00,WUHU216HW,2013-02-27 16:45:00,
2013-02-27 11:50:00,45.1,35.9,0.00,SE,135,0.0,6.7,70,0.00,,,0.00,WUHU216HW,2013-02-27 16:50:00,
2013-02-27 11:55:00,45.1,35.7,0.00,SE,135,3.1,6.7,70,0.00,,,0.00,WUHU216HW,2013-02-27 16:55:00,
2013-02-27 12:00:00,45.1,35.9,0.00,ESE,113,2.0,5.8,70,0.00,,,0.00,WUHU216HW,2013-02-27 17:00:00,
2013-02-27 12:05:00,45.1,35.9,0.00,SE,135,0.0,3.8,70,0.00,,,0.00,WUHU216HW,2013-02-27 17:05:00,
2013-02-27 12:10:00,45.1,35.5,0.00,SE,135,2.2,5.3,69,0.00,,,0.00,WUHU216HW,2013-02-27 17:10:00,
2013-02-27 12:15:00,45.1,35.5,0.00,WNW,293,0.0,5.3,69,0.00,,,0.00,WUHU216HW,2013-02-27 17:15:00,
2013-02-27 12:20:00,45.3,35.7,0.00,WNW,293,0.8,3.5,69,0.00,,,0.00,WUHU216HW,2013-02-27 17:20:00,
2013-02-27 12:24:00,45.3,35.7,0.00,WSW,248,0.0,1.7,69,0.00,,,0.00,WUHU216HW,2013-02-27 17:24:00,
2013-02-27 12:29:00,45.6,36.1,0.00,SE,135,4.6,6.2,69,0.00,,,0.00,WUHU216HW,2013-02-27 17:29:00,
2013-02-27 12:34:00,46.0,36.0,0.00,ESE,113,0.0,6.2,68,0.00,,,0.00,WUHU216HW,2013-02-27 17:34:00,
2013-02-27 12:39:00,46.2,36.6,0.00,SE,135,0.0,5.5,69,0.00,,,0.00,WUHU216HW,2013-02-27 17:39:00,
2013-02-27 12:44:00,46.5,36.9,0.00,SE,135,0.0,4.6,69,0.00,,,0.00,WUHU216HW,2013-02-27 17:44:00,
2013-02-27 12:49:00,46.9,36.9,0.00,SE,135,2.2,4.0,68,0.00,,,0.00,WUHU216HW,2013-02-27 17:49:00,
2013-02-27 12:54:00,47.1,37.0,0.00,SE,135,0.0,4.0,68,0.00,,,0.00,WUHU216HW,2013-02-27 17:54:00,
2013-02-27 12:59:00,47.8,37.5,0.00,SE,135,1.5,2.4,68,0.00,,,0.00,WUHU216HW,2013-02-27 17:59:00,
2013-02-27 13:04:00,48.0,37.5,0.00,SE,135,0.0,2.4,67,0.00,,,0.00,WUHU216HW,2013-02-27 18:04:00,
2013-02-27 13:09:00,48.0,37.5,0.00,SE,135,0.0,2.4,67,0.00,,,0.00,WUHU216HW,2013-02-27 18:09:00,
2013-02-27 13:14:00,48.3,37.8,0.00,SE,135,0.0,2.4,67,0.00,,,0.00,WUHU216HW,2013-02-27 18:14:00,
2013-02-27 13:19:00,48.3,37.4,0.00,ESE,113,0.0,4.2,66,0.00,,,0.00,WUHU216HW,2013-02-27 18:19:00,
2013-02-27 13:24:00,48.7,37.4,0.00,SE,135,1.1,5.3,65,0.00,,,0.00,WUHU216HW,2013-02-27 18:24:00,
2013-02-27 13:29:00,48.9,38.0,0.00,SSE,158,0.0,5.3,66,0.00,,,0.00,WUHU216HW,2013-02-27 18:29:00,
2013-02-27 13:34:00,48.9,37.2,0.00,SSE,158,0.0,1.7,64,0.00,,,0.00,WUHU216HW,2013-02-27 18:34:00,
2013-02-27 13:39:00,49.1,37.7,0.00,ESE,113,5.3,5.3,65,0.00,,,0.00,WUHU216HW,2013-02-27 18:39:00,
2013-02-27 13:44:00,49.2,37.5,0.00,ESE,113,2.2,5.3,64,0.00,,,0.00,WUHU216HW,2013-02-27 18:44:00,
2013-02-27 13:49:00,49.6,37.9,0.00,SE,135,0.0,3.1,64,0.00,,,0.00,WUHU216HW,2013-02-27 18:49:00,
2013-02-27 13:54:00,49.6,37.9,0.00,NW,315,0.0,3.1,64,0.00,,,0.00,WUHU216HW,2013-02-27 18:54:00,
2013-02-27 13:59:00,49.6,38.4,0.00,WNW,293,0.0,2.0,65,0.00,,,0.00,WUHU216HW,2013-02-27 18:59:00,
2013-02-27 14:04:00,49.6,37.9,0.00,WNW,293,0.0,0.0,64,0.00,,,0.00,WUHU216HW,2013-02-27 19:04:00,
2013-02-27 14:09:00,49.8,38.0,0.00,NW,315,0.0,2.4,64,0.00,,,0.00,WUHU216HW,2013-02-27 19:09:00,
2013-02-27 14:14:00,49.8,38.0,0.00,SE,135,0.0,2.4,64,0.00,,,0.00,WUHU216HW,2013-02-27 19:14:00,
2013-02-27 14:19:00,49.8,38.0,0.00,SSE,158,0.0,0.0,64,0.00,,,0.00,WUHU216HW,2013-02-27 19:19:00,
2013-02-27 14:24:00,49.8,37.6,0.00,SE,135,0.0,2.9,63,0.00,,,0.00,WUHU216HW,2013-02-27 19:24:00,
2013-02-27 14:29:00,49.6,37.5,0.00,WSW,248,0.0,2.9,63,0.00,,,0.00,WUHU216HW,2013-02-27 19:29:00,
2013-02-27 14:34:00,49.4,37.3,0.00,WSW,248,0.0,1.1,63,0.00,,,0.00,WUHU216HW,2013-02-27 19:34:00,
2013-02-27 14:39:00,49.2,37.1,0.00,SSE,158,0.0,0.0,63,0.00,,,0.00,WUHU216HW,2013-02-27 19:39:00,
2013-02-27 14:44:00,49.4,37.7,0.00,SSE,158,0.0,0.0,64,0.00,,,0.00,WUHU216HW,2013-02-27 19:44:00,
2013-02-27 14:49:00,49.4,37.3,0.00,SSE,158,0.0,0.0,63,0.00,,,0.00,WUHU216HW,2013-02-27 19:49:00,
2013-02-27 14:54:00,49.4,37.3,0.00,SE,135,1.3,2.4,63,0.00,,,0.00,WUHU216HW,2013-02-27 19:54:00,
2013-02-27 14:59:00,49.2,37.1,0.00,SE,135,0.0,2.4,63,0.00,,,0.00,WUHU216HW,2013-02-27 19:59:00,
2013-02-27 15:04:00,49.2,37.1,0.00,SE,135,0.0,1.5,63,0.00,,,0.00,WUHU216HW,2013-02-27 20:04:00,
2013-02-27 15:09:00,49.6,37.9,0.00,ESE,113,2.0,3.1,64,0.00,,,0.00,WUHU216HW,2013-02-27 20:09:00,
2013-02-27 15:14:00,49.6,37.9,0.00,NNW,338,0.0,3.1,64,0.00,,,0.00,WUHU216HW,2013-02-27 20:14:00,
2013-02-27 15:19:00,49.6,37.9,0.00,ESE,113,0.0,3.3,64,0.00,,,0.00,WUHU216HW,2013-02-27 20:19:00,
2013-02-27 15:24:00,49.6,37.9,0.00,ESE,113,1.1,3.3,64,0.00,,,0.00,WUHU216HW,2013-02-27 20:24:00,
2013-02-27 15:29:00,49.8,37.6,0.00,ESE,113,0.0,2.6,63,0.00,,,0.00,WUHU216HW,2013-02-27 20:29:00,
2013-02-27 15:34:00,49.8,38.0,0.00,SE,135,0.0,3.8,64,0.00,,,0.00,WUHU216HW,2013-02-27 20:34:00,
2013-02-27 15:39:00,49.8,37.6,0.00,SE,135,0.0,3.8,63,0.00,,,0.00,WUHU216HW,2013-02-27 20:39:00,
2013-02-27 15:44:00,49.8,37.6,0.00,SE,135,0.0,0.0,63,0.00,,,0.00,WUHU216HW,2013-02-27 20:44:00,
2013-02-27 15:49:00,49.8,37.6,0.00,SE,135,3.3,3.3,63,0.00,,,0.00,WUHU216HW,2013-02-27 20:49:00,
2013-02-27 15:54:00,49.8,37.6,0.00,SE,135,0.0,4.2,63,0.00,,,0.00,WUHU216HW,2013-02-27 20:54:00,
2013-02-27 15:59:00,49.8,37.6,0.00,SE,135,0.0,4.6,63,0.00,,,0.00,WUHU216HW,2013-02-27 20:59:00,
2013-02-27 16:04:00,49.8,37.6,0.00,SE,135,1.5,4.6,63,0.00,,,0.00,WUHU216HW,2013-02-27 21:04:00,
2013-02-27 16:09:00,49.8,37.6,0.00,SE,135,0.0,2.6,63,0.00,,,0.00,WUHU216HW,2013-02-27 21:09:00,
2013-02-27 16:14:00,49.8,37.6,0.00,NW,315,0.0,0.0,63,0.00,,,0.00,WUHU216HW,2013-02-27 21:14:00,
2013-02-27 16:19:00,49.8,37.6,0.00,NW,315,0.0,0.0,63,0.00,,,0.00,WUHU216HW,2013-02-27 21:19:00,
2013-02-27 16:24:00,49.8,37.6,0.00,SE,135,1.5,1.5,63,0.00,,,0.00,WUHU216HW,2013-02-27 21:24:00,
2013-02-27 16:29:00,49.8,37.2,0.00,WNW,293,0.0,1.5,62,0.00,,,0.00,WUHU216HW,2013-02-27 21:29:00,
2013-02-27 16:34:00,49.6,37.1,0.00,SW,225,0.0,0.0,62,0.00,,,0.00,WUHU216HW,2013-02-27 21:34:00,
2013-02-27 16:39:00,49.6,37.5,0.00,SW,225,0.0,0.0,63,0.00,,,0.00,WUHU216HW,2013-02-27 21:39:00,
2013-02-27 16:44:00,49.6,37.1,0.00,West,270,1.3,1.3,62,0.00,,,0.00,WUHU216HW,2013-02-27 21:44:00,
2013-02-27 16:49:00,49.6,36.7,0.00,East,90,0.0,1.3,61,0.00,,,0.00,WUHU216HW,2013-02-27 21:49:00,
2013-02-27 16:54:00,49.2,36.8,0.00,East,90,0.0,0.0,62,0.00,,,0.00,WUHU216HW,2013-02-27 21:54:00,
2013-02-27 16:59:00,49.2,36.8,0.00,East,90,0.0,0.0,62,0.00,,,0.00,WUHU216HW,2013-02-27 21:59:00,
2013-02-27 17:04:00,49.1,36.6,0.00,ESE,113,0.0,2.0,62,0.00,,,0.00,WUHU216HW,2013-02-27 22:04:00,
2013-02-27 17:09:00,48.9,36.4,0.00,SE,135,0.0,2.0,62,0.00,,,0.00,WUHU216HW,2013-02-27 22:09:00,
2013-02-27 17:14:00,48.7,36.3,0.00,SE,135,0.0,0.0,62,0.00,,,0.00,WUHU216HW,2013-02-27 22:14:00,
2013-02-27 17:19:00,48.5,36.1,0.00,SE,135,0.0,0.0,62,0.00,,,0.00,WUHU216HW,2013-02-27 22:19:00,
2013-02-27 17:24:00,48.3,35.9,0.00,SE,135,0.0,0.0,62,0.00,,,0.00,WUHU216HW,2013-02-27 22:24:00,
2013-02-27 17:29:00,48.2,35.8,0.00,SE,135,0.0,0.0,62,0.00,,,0.00,WUHU216HW,2013-02-27 22:29:00,
2013-02-27 17:34:00,48.0,35.6,0.00,SE,135,0.0,1.1,62,0.00,,,0.00,WUHU216HW,2013-02-27 22:34:00,
2013-02-27 17:39:00,47.8,35.4,0.00,SE,135,0.0,1.1,62,0.00,,,0.00,WUHU216HW,2013-02-27 22:39:00,
2013-02-27 17:44:00,47.6,35.6,0.00,SE,135,0.0,0.0,63,0.00,,,0.00,WUHU216HW,2013-02-27 22:44:00,
2013-02-27 17:49:00,47.3,35.3,0.00,SE,135,0.0,0.0,63,0.00,,,0.00,WUHU216HW,2013-02-27 22:49:00,
2013-02-27 17:54:00,47.1,35.1,0.00,SE,135,0.0,0.0,63,0.00,,,0.00,WUHU216HW,2013-02-27 22:54:00,
2013-02-27 17:59:00,46.9,34.9,0.00,SE,135,0.0,0.0,63,0.00,,,0.00,WUHU216HW,2013-02-27 22:59:00,
2013-02-27 18:04:00,46.5,34.6,0.00,SE,135,0.0,0.0,63,0.00,,,0.00,WUHU216HW,2013-02-27 23:04:00,
2013-02-27 18:09:00,46.5,34.6,0.00,SE,135,0.0,0.0,63,0.00,,,0.00,WUHU216HW,2013-02-27 23:09:00,
2013-02-27 18:14:00,46.2,34.6,0.00,SE,135,0.0,0.0,64,0.00,,,0.00,WUHU216HW,2013-02-27 23:14:00,
2013-02-27 18:19:00,46.0,34.5,0.00,SE,135,0.0,0.0,64,0.00,,,0.00,WUHU216HW,2013-02-27 23:19:00,
2013-02-27 18:24:00,45.6,34.1,0.00,SE,135,0.0,0.0,64,0.00,,,0.00,WUHU216HW,2013-02-27 23:24:00,
2013-02-27 18:29:00,45.6,34.1,0.00,ESE,113,0.0,3.8,64,0.00,,,0.00,WUHU216HW,2013-02-27 23:29:00,
2013-02-27 18:34:00,45.3,34.2,0.00,ESE,113,0.0,3.8,65,0.00,,,0.00,WUHU216HW,2013-02-27 23:34:00,
2013-02-27 18:39:00,45.1,34.0,0.00,ESE,113,0.0,1.7,65,0.00,,,0.00,WUHU216HW,2013-02-27 23:39:00,
2013-02-27 18:44:00,44.7,33.4,0.00,ESE,113,0.0,2.6,64,0.00,,,0.00,WUHU216HW,2013-02-27 23:44:00,
2013-02-27 18:49:00,44.6,33.5,0.00,ESE,113,0.0,2.6,65,0.00,,,0.00,WUHU216HW,2013-02-27 23:49:00,
2013-02-27 18:54:00,44.4,33.3,0.00,ESE,113,0.0,0.0,65,0.00,,,0.00,WUHU216HW,2013-02-27 23:54:00,
2013-02-27 18:59:00,44.0,33.0,0.00,ESE,113,0.0,1.7,65,0.00,,,0.00,WUHU216HW,2013-02-27 23:59:00,
2013-02-27 19:04:00,43.8,33.2,0.00,ESE,113,2.4,2.4,66,0.00,,,0.00,WUHU216HW,2013-02-28 00:04:00,
2013-02-27 19:09:00,43.5,32.8,0.00,ESE,113,2.4,2.6,66,0.00,,,0.00,WUHU216HW,2013-02-28 00:09:00,
2013-02-27 19:14:00,43.5,33.2,0.00,ESE,113,2.9,2.9,67,0.00,,,0.00,WUHU216HW,2013-02-28 00:14:00,
2013-02-27 19:19:00,43.3,33.0,0.00,ESE,113,1.7,2.9,67,0.00,,,0.00,WUHU216HW,2013-02-28 00:19:00,
2013-02-27 19:24:00,43.1,32.9,0.00,ESE,113,0.0,2.2,67,0.00,,,0.00,WUHU216HW,2013-02-28 00:24:00,
2013-02-27 19:29:00,42.9,32.7,0.00,ESE,113,0.0,3.3,67,0.00,,,0.00,WUHU216HW,2013-02-28 00:29:00,
2013-02-27 19:34:00,42.9,32.7,0.00,ESE,113,0.0,3.3,67,0.00,,,0.00,WUHU216HW,2013-02-28 00:34:00,
2013-02-27 19:39:00,42.6,32.4,0.00,ESE,113,2.4,2.4,67,0.00,,,0.00,WUHU216HW,2013-02-28 00:39:00,
2013-02-27 19:44:00,42.6,32.4,0.00,ESE,113,0.0,2.4,67,0.00,,,0.00,WUHU216HW,2013-02-28 00:44:00,
2013-02-27 19:49:00,42.6,32.8,0.00,ESE,113,0.0,0.0,68,0.00,,,0.00,WUHU216HW,2013-02-28 00:49:00,
2013-02-27 19:54:00,42.6,32.8,0.00,ESE,113,0.0,0.0,68,0.00,,,0.00,WUHU216HW,2013-02-28 00:54:00,
2013-02-27 19:59:00,42.6,32.8,0.00,ESE,113,0.0,0.0,68,0.00,,,0.00,WUHU216HW,2013-02-28 00:59:00,
2013-02-27 20:04:00,42.4,32.6,0.00,ESE,113,0.0,0.0,68,0.00,,,0.00,WUHU216HW,2013-02-28 01:04:00,
2013-02-27 20:09:00,42.4,32.6,0.00,ESE,113,0.0,0.0,68,0.00,,,0.00,WUHU216HW,2013-02-28 01:09:00,
2013-02-27 20:14:00,42.4,33.0,0.00,SE,135,3.1,3.1,69,0.00,,,0.00,WUHU216HW,2013-02-28 01:14:00,
2013-02-27 20:19:00,42.4,33.0,0.00,SE,135,0.0,3.1,69,0.00,,,0.00,WUHU216HW,2013-02-28 01:19:00,
2013-02-27 20:24:00,42.4,33.0,0.00,SE,135,5.1,5.1,69,0.00,,,0.00,WUHU216HW,2013-02-28 01:24:00,
2013-02-27 20:29:00,42.4,33.0,0.00,West,270,0.0,5.1,69,0.00,,,0.00,WUHU216HW,2013-02-28 01:29:00,
2013-02-27 20:34:00,42.0,33.0,0.00,ESE,113,0.0,1.3,70,0.00,,,0.00,WUHU216HW,2013-02-28 01:34:00,
2013-02-27 20:39:00,41.9,33.2,0.00,SE,135,0.0,1.3,71,0.00,,,0.00,WUHU216HW,2013-02-28 01:39:00,
2013-02-27 20:44:00,41.7,33.0,0.00,ESE,113,0.0,2.2,71,0.00,,,0.00,WUHU216HW,2013-02-28 01:44:00,
2013-02-27 20:49:00,41.5,33.1,0.00,West,270,0.0,2.2,72,0.00,,,0.00,WUHU216HW,2013-02-28 01:49:00,
2013-02-27 20:54:00,41.1,33.1,0.00,SE,135,0.0,0.0,73,0.00,,,0.00,WUHU216HW,2013-02-28 01:54:00,
2013-02-27 20:59:00,40.8,32.7,0.00,SE,135,0.0,0.0,73,0.00,,,0.00,WUHU216HW,2013-02-28 01:59:00,
2013-02-27 21:04:00,40.8,32.7,0.00,SE,135,0.0,0.0,73,0.00,,,0.00,WUHU216HW,2013-02-28 02:04:00,
2013-02-27 21:10:00,40.4,32.4,0.00,SE,135,0.0,0.0,73,0.00,,,0.00,WUHU216HW,2013-02-28 02:10:00,
2013-02-27 21:15:00,40.2,32.5,0.00,SE,135,0.0,0.0,74,0.00,,,0.00,WUHU216HW,2013-02-28 02:15:00,
2013-02-27 21:20:00,39.9,32.4,0.00,SE,135,0.0,0.0,74,0.00,,,0.00,WUHU216HW,2013-02-28 02:20:00,
2013-02-27 21:25:00,39.9,32.2,0.00,SE,135,0.0,0.0,74,0.00,,,0.00,WUHU216HW,2013-02-28 02:25:00,
2013-02-27 21:30:00,39.7,32.4,0.00,SE,135,0.0,2.0,75,0.00,,,0.00,WUHU216HW,2013-02-28 02:30:00,
2013-02-27 21:35:00,39.5,32.2,0.00,SE,135,0.0,2.0,75,0.00,,,0.00,WUHU216HW,2013-02-28 02:35:00,
2013-02-27 21:40:00,39.3,32.4,0.00,SE,135,0.0,1.1,76,0.00,,,0.00,WUHU216HW,2013-02-28 02:40:00,
2013-02-27 21:45:00,39.2,32.2,0.00,SE,135,0.0,1.1,76,0.00,,,0.00,WUHU216HW,2013-02-28 02:45:00,
2013-02-27 21:50:00,39.0,32.0,0.00,SE,135,1.3,1.3,76,0.00,,,0.00,WUHU216HW,2013-02-28 02:50:00,
2013-02-27 21:55:00,39.0,32.0,0.00,SE,135,0.0,1.3,76,0.00,,,0.00,WUHU216HW,2013-02-28 02:55:00,
2013-02-27 22:00:00,38.8,31.8,0.00,SE,135,0.0,0.0,76,0.00,,,0.00,WUHU216HW,2013-02-28 03:00:00,
2013-02-27 22:05:00,38.8,32.2,0.00,SE,135,0.0,0.0,77,0.00,,,0.00,WUHU216HW,2013-02-28 03:05:00,
2013-02-27 22:10:00,38.6,32.0,0.00,SE,135,0.0,0.0,77,0.00,,,0.00,WUHU216HW,2013-02-28 03:10:00,
2013-02-27 22:15:00,38.4,31.8,0.00,SE,135,0.0,0.0,77,0.00,,,0.00,WUHU216HW,2013-02-28 03:15:00,
2013-02-27 22:20:00,38.4,31.8,0.00,SE,135,0.0,0.0,77,0.00,,,0.00,WUHU216HW,2013-02-28 03:20:00,
2013-02-27 22:25:00,38.4,32.2,0.00,SE,135,0.0,0.0,78,0.00,,,0.00,WUHU216HW,2013-02-28 03:25:00,
2013-02-27 22:30:00,38.3,32.0,0.00,SE,135,0.0,0.6,78,0.00,,,0.00,WUHU216HW,2013-02-28 03:30:00,
2013-02-27 22:35:00,38.3,32.0,0.00,SE,135,0.0,0.6,78,0.00,,,0.00,WUHU216HW,2013-02-28 03:35:00,
2013-02-27 22:40:00,38.1,32.1,0.00,West,270,0.0,0.0,79,0.00,,,0.00,WUHU216HW,2013-02-28 03:40:00,
2013-02-27 22:45:00,38.1,32.1,0.00,West,270,0.0,0.0,79,0.00,,,0.00,WUHU216HW,2013-02-28 03:45:00,
2013-02-27 22:50:00,38.1,32.1,0.00,West,270,0.0,0.0,79,0.00,,,0.00,WUHU216HW,2013-02-28 03:50:00,
2013-02-27 22:55:00,37.9,32.0,0.00,SW,225,0.0,0.0,79,0.00,,,0.00,WUHU216HW,2013-02-28 03:55:00,
2013-02-27 23:00:00,37.9,32.0,0.00,SW,225,0.0,0.0,79,0.00,,,0.00,WUHU216HW,2013-02-28 04:00:00,
2013-02-27 23:05:00,37.9,32.3,0.00,SW,225,0.0,0.0,80,0.00,,,0.00,WUHU216HW,2013-02-28 04:05:00,
2013-02-27 23:10:00,37.9,32.3,0.00,WSW,248,0.0,0.0,80,0.00,,,0.00,WUHU216HW,2013-02-28 04:10:00,
2013-02-27 23:15:00,37.9,32.3,0.00,SW,225,0.0,0.0,80,0.00,,,0.00,WUHU216HW,2013-02-28 04:15:00,
2013-02-27 23:20:00,37.9,32.3,0.00,SW,225,0.0,0.0,80,0.00,,,0.00,WUHU216HW,2013-02-28 04:20:00,
2013-02-27 23:25:00,37.9,32.3,0.00,SSE,158,0.0,0.0,80,0.00,,,0.00,WUHU216HW,2013-02-28 04:25:00,
2013-02-27 23:30:00,37.9,32.6,0.00,SSE,158,0.0,2.6,81,0.00,,,0.00,WUHU216HW,2013-02-28 04:30:00,
2013-02-27 23:35:00,37.9,32.6,0.00,SSE,158,0.0,2.6,81,0.00,,,0.00,WUHU216HW,2013-02-28 04:35:00,
2013-02-27 23:40:00,37.9,32.6,0.00,SSE,158,0.0,0.0,81,0.00,,,0.00,WUHU216HW,2013-02-28 04:40:00,
2013-02-27 23:45:00,37.9,32.6,0.00,SSE,158,0.0,0.0,81,0.00,,,0.00,WUHU216HW,2013-02-28 04:45:00,
2013-02-27 23:50:00,37.7,32.4,0.00,SSE,158,0.0,0.0,81,0.00,,,0.00,WUHU216HW,2013-02-28 04:50:00,
2013-02-27 23:55:00,37.7,32.4,0.00,ENE,68,0.0,0.0,81,0.00,,,0.00,WUHU216HW,2013-02-28 04:55:00,